• In Belgien
  • Länderverzeichnis
  • Für 7 Tage
  • Wassertemperatur
  • Satellitenkarten
  • Wetterkarte
  • Widgets
  • user-avatar
    Anmelden

    Stündliche Wetter Hobart

    Heute, 18 Oktober, Mittwoch

    Zeit Temperatur Niederschläge Wind Luftdruck Luftfeuchtigkeit
    00:00 +16°C° 0 mm 2 m/S 752 mmHg 70%
    01:00 +15°C° 0 mm 2 m/S 752 mmHg 69%
    02:00 +14°C° 0 mm 3 m/S 752 mmHg 66%
    03:00 +13°C° 0 mm 3 m/S 752 mmHg 64%
    04:00 +13°C° 0 mm 3 m/S 752 mmHg 61%
    05:00 +14°C° 0 mm 3 m/S 752 mmHg 57%
    06:00 +16°C° 0 mm 3 m/S 752 mmHg 54%
    07:00 +17°C° 0 mm 2 m/S 752 mmHg 51%
    08:00 +21°C° 0 mm 3 m/S 752 mmHg 43%
    09:00 +25°C° 0 mm 3 m/S 752 mmHg 35%
    10:00 +29°C° 0 mm 4 m/S 752 mmHg 27%
    11:00 +30°C° 0 mm 4 m/S 751 mmHg 26%
    12:00 +32°C° 0 mm 4 m/S 751 mmHg 24%
    13:00 +33°C° 0 mm 3 m/S 750 mmHg 22%
    14:00 +33°C° 0 mm 4 m/S 750 mmHg 23%
    15:00 +32°C° 0 mm 4 m/S 749 mmHg 24%
    16:00 +32°C° 0 mm 4 m/S 749 mmHg 27%
    17:00 +28°C° 0 mm 4 m/S 749 mmHg 33%
    18:00 +26°C° 0 mm 4 m/S 749 mmHg 40%
    19:00 +22°C° 0 mm 4 m/S 749 mmHg 46%
    20:00 +21°C° 0 mm 4 m/S 749 mmHg 48%
    21:00 +20°C° 0 mm 4 m/S 749 mmHg 50%
    22:00 +19°C° 0 mm 4 m/S 749 mmHg 53%
    23:00 +19°C° 0 mm 4 m/S 749 mmHg 52%

    Morgen, 19 Oktober, Donnerstag

    Zeit Temperatur Niederschläge Wind Luftdruck Luftfeuchtigkeit
    00:00 +19°C° 0 mm 4 m/S 748 mmHg 52%
    01:00 +19°C° 0 mm 4 m/S 748 mmHg 52%
    02:00 +18°C° 0,1 mm 3 m/S 747 mmHg 55%
    03:00 +18°C° 0,1 mm 3 m/S 747 mmHg 59%
    04:00 +18°C° 0,1 mm 3 m/S 746 mmHg 62%
    05:00 +18°C° 0,5 mm 3 m/S 746 mmHg 70%
    06:00 +18°C° 0,5 mm 4 m/S 746 mmHg 78%
    07:00 +18°C° 0,5 mm 4 m/S 745 mmHg 85%
    08:00 +18°C° 0,5 mm 4 m/S 745 mmHg 87%
    09:00 +19°C° 0,5 mm 3 m/S 745 mmHg 89%
    10:00 +20°C° 0,5 mm 3 m/S 744 mmHg 91%
    11:00 +19°C° 1,7 mm 3 m/S 744 mmHg 93%
    12:00 +19°C° 1,7 mm 3 m/S 744 mmHg 94%
    13:00 +18°C° 1,7 mm 3 m/S 744 mmHg 95%
    14:00 +18°C° 0,4 mm 3 m/S 744 mmHg 91%
    15:00 +18°C° 0,4 mm 3 m/S 744 mmHg 86%
    16:00 +17°C° 0,4 mm 4 m/S 744 mmHg 82%
    17:00 +15°C° 0,1 mm 4 m/S 745 mmHg 82%
    18:00 +14°C° 0,1 mm 3 m/S 745 mmHg 82%
    19:00 +12°C° 0,1 mm 3 m/S 746 mmHg 82%
    20:00 +11°C° 0 mm 3 m/S 746 mmHg 83%
    21:00 +10°C° 0 mm 4 m/S 747 mmHg 85%
    22:00 +7°C° 0 mm 4 m/S 747 mmHg 86%
    23:00 +7°C° 0,1 mm 4 m/S 747 mmHg 86%

    übermorgen, 20 Oktober, Freitag

    Zeit Temperatur Niederschläge Wind Luftdruck Luftfeuchtigkeit
    00:00 +7°C° 0,1 mm 5 m/S 747 mmHg 86%
    01:00 +7°C° 0,1 mm 5 m/S 747 mmHg 86%
    02:00 +7°C° 0,1 mm 5 m/S 747 mmHg 86%
    03:00 +5°C° 0,1 mm 6 m/S 748 mmHg 87%
    04:00 +5°C° 0,1 mm 6 m/S 748 mmHg 88%
    05:00 +5°C° 0 mm 6 m/S 749 mmHg 85%
    06:00 +7°C° 0 mm 6 m/S 749 mmHg 83%
    07:00 +7°C° 0 mm 6 m/S 750 mmHg 81%
    08:00 +8°C° 0 mm 7 m/S 750 mmHg 76%
    09:00 +9°C° 0 mm 7 m/S 751 mmHg 71%
    10:00 +10°C° 0 mm 7 m/S 751 mmHg 66%
    11:00 +10°C° 0,1 mm 7 m/S 752 mmHg 64%
    12:00 +10°C° 0,1 mm 7 m/S 752 mmHg 62%
    13:00 +11°C° 0,1 mm 6 m/S 752 mmHg 59%
    14:00 +10°C° 0 mm 6 m/S 752 mmHg 58%
    15:00 +10°C° 0 mm 6 m/S 752 mmHg 56%
    16:00 +10°C° 0 mm 6 m/S 752 mmHg 54%
    17:00 +9°C° 0 mm 5 m/S 753 mmHg 59%
    18:00 +8°C° 0 mm 5 m/S 753 mmHg 64%
    19:00 +7°C° 0 mm 4 m/S 753 mmHg 70%
    20:00 +7°C° 0 mm 4 m/S 753 mmHg 72%
    21:00 +7°C° 0 mm 4 m/S 753 mmHg 75%
    22:00 +7°C° 0 mm 5 m/S 753 mmHg 77%
    23:00 +7°C° 0 mm 5 m/S 753 mmHg 78%

    21 Oktober, Samstag

    Zeit Temperatur Niederschläge Wind Luftdruck Luftfeuchtigkeit
    00:00 +7°C° 0 mm 5 m/S 752 mmHg 79%
    01:00 +7°C° 0 mm 5 m/S 752 mmHg 80%
    02:00 +7°C° 0 mm 5 m/S 752 mmHg 81%
    03:00 +7°C° 0 mm 5 m/S 751 mmHg 81%
    04:00 +7°C° 0 mm 5 m/S 751 mmHg 81%
    05:00 +8°C° 0 mm 5 m/S 751 mmHg 80%
    06:00 +9°C° 0 mm 5 m/S 751 mmHg 78%
    07:00 +9°C° 0 mm 5 m/S 751 mmHg 76%
    08:00 +10°C° 0 mm 5 m/S 750 mmHg 76%
    09:00 +10°C° 0 mm 5 m/S 750 mmHg 76%
    10:00 +12°C° 0 mm 4 m/S 750 mmHg 77%
    11:00 +12°C° 0 mm 5 m/S 749 mmHg 73%
    12:00 +13°C° 0 mm 5 m/S 749 mmHg 70%
    13:00 +14°C° 0 mm 5 m/S 748 mmHg 67%
    14:00 +13°C° 0 mm 5 m/S 747 mmHg 69%
    15:00 +13°C° 0 mm 5 m/S 747 mmHg 71%
    16:00 +12°C° 0 mm 5 m/S 746 mmHg 73%
    17:00 +12°C° 0 mm 5 m/S 746 mmHg 76%
    18:00 +10°C° 0 mm 5 m/S 746 mmHg 79%
    19:00 +11°C° 0 mm 4 m/S 746 mmHg 81%
    20:00 +9°C° 0 mm 5 m/S 746 mmHg 82%
    21:00 +9°C° 0 mm 5 m/S 745 mmHg 82%
    22:00 +9°C° 0 mm 5 m/S 745 mmHg 82%
    23:00 +9°C° 0,2 mm 5 m/S 744 mmHg 84%

    22 Oktober, Sonntag

    Zeit Temperatur Niederschläge Wind Luftdruck Luftfeuchtigkeit
    00:00 +9°C° 0,2 mm 5 m/S 744 mmHg 86%
    01:00 +9°C° 0,2 mm 5 m/S 743 mmHg 88%
    02:00 +9°C° 0,3 mm 5 m/S 743 mmHg 91%
    03:00 +9°C° 0,3 mm 5 m/S 743 mmHg 93%
    04:00 +9°C° 0,3 mm 5 m/S 742 mmHg 95%
    05:00 +9°C° 0,2 mm 5 m/S 743 mmHg 95%
    06:00 +9°C° 0,2 mm 5 m/S 743 mmHg 95%
    07:00 +9°C° 0,2 mm 5 m/S 743 mmHg 94%
    08:00 +9°C° 0,2 mm 5 m/S 744 mmHg 92%
    09:00 +9°C° 0,2 mm 5 m/S 744 mmHg 91%
    10:00 +9°C° 0,2 mm 5 m/S 744 mmHg 89%
    11:00 +10°C° 0,1 mm 5 m/S 745 mmHg 81%
    12:00 +11°C° 0,1 mm 6 m/S 745 mmHg 73%
    13:00 +11°C° 0,1 mm 6 m/S 745 mmHg 65%
    14:00 +13°C° 0 mm 6 m/S 745 mmHg 64%
    15:00 +13°C° 0 mm 5 m/S 745 mmHg 62%
    16:00 +13°C° 0 mm 5 m/S 745 mmHg 60%
    17:00 +12°C° 0 mm 5 m/S 745 mmHg 67%
    18:00 +10°C° 0 mm 4 m/S 746 mmHg 73%
    19:00 +8°C° 0 mm 4 m/S 746 mmHg 79%
    20:00 +7°C° 0 mm 4 m/S 747 mmHg 83%
    21:00 +7°C° 0 mm 3 m/S 747 mmHg 87%
    22:00 +7°C° 0 mm 3 m/S 747 mmHg 92%
    23:00 +7°C° 0 mm 3 m/S 747 mmHg 91%

    23 Oktober, Montag

    Zeit Temperatur Niederschläge Wind Luftdruck Luftfeuchtigkeit
    00:00 +7°C° 0 mm 3 m/S 747 mmHg 91%
    01:00 +7°C° 0 mm 3 m/S 747 mmHg 90%
    02:00 +7°C° 0 mm 3 m/S 746 mmHg 91%
    03:00 +7°C° 0 mm 3 m/S 746 mmHg 92%
    04:00 +7°C° 0 mm 3 m/S 746 mmHg 93%
    05:00 +8°C° 0 mm 3 m/S 746 mmHg 88%
    06:00 +9°C° 0 mm 3 m/S 746 mmHg 84%
    07:00 +10°C° 0 mm 3 m/S 747 mmHg 79%
    08:00 +12°C° 0 mm 3 m/S 747 mmHg 74%
    09:00 +14°C° 0 mm 3 m/S 747 mmHg 70%
    10:00 +17°C° 0 mm 3 m/S 747 mmHg 65%
    11:00 +17°C° 0,1 mm 3 m/S 746 mmHg 66%
    12:00 +17°C° 0,1 mm 3 m/S 746 mmHg 66%
    13:00 +17°C° 0,1 mm 3 m/S 746 mmHg 67%
    14:00 +17°C° 0 mm 3 m/S 746 mmHg 68%
    15:00 +17°C° 0 mm 3 m/S 746 mmHg 70%
    16:00 +16°C° 0 mm 3 m/S 746 mmHg 72%
    17:00 +14°C° 0 mm 3 m/S 746 mmHg 77%
    18:00 +13°C° 0 mm 3 m/S 747 mmHg 83%
    19:00 +13°C° 0 mm 2 m/S 747 mmHg 89%
    20:00 +12°C° 0 mm 2 m/S 747 mmHg 92%
    21:00 +10°C° 0 mm 2 m/S 748 mmHg 94%
    22:00 +9°C° 0 mm 2 m/S 748 mmHg 97%
    23:00 +9°C° 0 mm 2 m/S 748 mmHg 97%
    Mehr zeigen